Location: Wald
(31.7579°N, 86.6655°W)
Time: 21:12:04
(UTC+00:00)

IDEFIX/ARIANE 42P - Pass Details

Date: 14 July 2020
Orbit: 784 x 804 km, 98.4° (Epoch: 13 August)

Event Time Altitude Azimuth Distance (km) Brightness Sun altitude
Rises 08:40:01 0° 16° (NNE) 3,280 6.8 -23.3°
Reaches altitude 10° 08:42:22 10° 20° (NNE) 2,347 5.9 -23.0°
Maximum altitude 08:47:30 64° 101° (E) 867 2.8 -22.2°
Enters shadow 08:49:47 33° 171° (S) 1,300 3.4 -21.9°
